Terug naar catalogus

CZ-3B DEB

LostHEO
NORAD 42461·DEBRIS·🇨🇳 China

Gelanceerd Sep 4, 2010 vanaf Xichang Satellite Launch Center

Loading…

Volgende Passages (komende 24 uur)

TLE

VerouderdSource: Space-Track

Epoch: Sep 23, 2024, 19:34 UTC

1 42461U 10042AC  24267.81556100 -.00000219  00000-0  00000-0 0  9994
2 42461  22.0385 143.1479 7290603  52.8324 353.6118  1.78174029 68212

Volg CZ-3B DEB in realtime met AllMySat

Download on the App Store